EW9592 Weather Reports


Display with metric or nautical units.
time (UTC)temp
F
wind
direction
speed
MPH
gust
MPH
rain 1hr
in
rain 24hr
in
rain mn
in
humidity
%
barometer
mb
20260903123024 71 174 0.0 0.0 0.00 0.00 0.00 92 1018.0
20260903121518 71 174 0.0 0.0 0.00 0.00 0.00 92 1017.9
20260903120018 71 175 0.0 0.0 0.00 0.00 0.00 92 1017.8
20260903114517 71 174 0.0 0.0 0.00 0.00 0.00 92 1017.9
20260903113014 71 174 0.0 0.0 0.00 0.00 0.00 92 1017.8
20260903111514 71 174 0.0 0.0 0.00 0.00 0.00 92 1017.7
20260903110015 71 174 0.0 0.0 0.00 0.00 0.00 92 1017.5
20260903104511 71 174 0.0 0.0 0.00 0.00 0.00 92 1017.4
20260903103010 71 174 0.0 0.0 0.00 0.00 0.00 92 1017.2
20260903101508 71 175 0.0 0.0 0.00 0.00 0.00 92 1017.3
20260903100008 71 174 0.0 0.0 0.00 0.00 0.00 92 1017.3
20260903094507 71 174 0.0 0.0 0.00 0.00 0.00 92 1017.3
20260903093006 72 174 0.0 0.0 0.00 0.00 0.00 92 1017.2
20260903091504 72 174 0.0 0.0 0.00 0.00 0.00 91 1017.2
20260903090004 72 174 0.0 0.0 0.00 0.00 0.00 91 1017.1
20260903084503 72 174 0.0 0.0 0.00 0.00 0.00 91 1016.9
20260903083100 72 174 0.0 0.0 0.00 0.00 0.00 91 1016.9
20260903081600 72 174 0.0 0.0 0.00 0.00 0.00 91 1016.8
20260903080058 72 174 0.0 0.0 0.00 0.00 0.00 91 1016.7
20260903074558 72 174 0.0 0.0 0.00 0.00 0.00 91 1016.7
20260903073056 73 174 0.0 0.0 0.00 0.00 0.00 91 1016.7
20260903071556 73 174 0.0 0.0 0.00 0.00 0.00 91 1016.6
20260903070058 73 174 0.0 0.0 0.00 0.00 0.00 91 1016.5
20260903064553 73 174 0.0 0.0 0.00 0.00 0.00 91 1016.5
20260903063114 73 174 0.0 0.0 0.00 0.00 0.00 91 1016.6
20260903061551 73 174 0.0 0.0 0.00 0.00 0.00 91 1016.6
20260903060050 74 174 0.0 0.0 0.00 0.00 0.00 91 1016.6
20260903054549 74 174 0.0 0.0 0.00 0.00 0.00 91 1016.6
20260903053047 74 174 0.0 0.0 0.00 0.00 0.00 91 1016.6
20260903051548 74 174 0.0 0.0 0.00 0.00 0.00 91 1016.6
20260903050106 74 174 0.0 0.0 0.00 0.00 0.00 91 1016.5
20260903044543 75 174 0.0 0.0 0.00 0.00 0.00 91 1016.5
20260903043043 75 174 0.0 0.0 0.00 0.00 0.00 91 1016.5
20260903041540 75 174 0.0 0.0 0.00 0.00 0.00 91 1016.6
20260903040038 75 174 0.0 0.0 0.00 0.00 0.00 91 1016.5
20260903034537 75 174 0.0 0.0 0.00 0.00 0.00 91 1016.5
20260903033038 76 174 0.0 0.0 0.00 0.00 0.00 91 1016.5
20260903031535 76 174 0.0 0.0 0.00 0.00 0.00 91 1016.4
20260903030035 76 174 0.0 0.0 0.00 0.00 0.00 91 1016.5
20260903024534 76 174 0.0 0.0 0.00 0.00 0.00 91 1016.5
20260903023038 77 174 0.0 0.0 0.00 0.00 0.00 90 1016.5
20260903021533 77 174 0.0 0.0 0.00 0.00 0.00 90 1016.6
20260903020032 77 174 0.0 0.0 0.00 0.00 0.00 90 1016.5
20260903014531 78 174 0.0 0.0 0.00 0.00 0.00 90 1016.5
20260903013032 78 174 0.0 0.0 0.00 0.00 0.00 90 1016.4
20260903011541 79 174 0.0 0.0 0.00 0.00 0.00 89 1016.3
20260903010032 79 174 0.0 0.0 0.00 0.00 0.00 89 1016.2
20260903004529 80 174 0.0 0.0 0.00 0.00 0.00 89 1016.1
20260903003028 81 174 0.0 0.0 0.00 0.00 0.00 89 1016.2
20260903001529 82 174 0.0 0.0 0.00 0.00 0.00 88 1016.1
20260903000027 83 175 0.0 0.0 0.00 0.00 0.00 87 1016.1
20260902234536 84 174 0.0 0.0 0.00 0.00 0.00 86 1016.0
20260902233026 85 172 0.0 0.0 0.00 0.00 0.00 85 1016.1
20260902231537 85 174 0.0 0.0 0.00 0.00 0.00 84 1016.2
20260902230031 86 174 0.0 0.0 0.00 0.00 0.00 83 1016.2
20260902224525 87 174 0.0 0.0 0.00 0.00 0.00 82 1016.2
20260902223024 87 136 0.0 0.0 0.00 0.00 0.00 81 1016.1
20260902221522 89 136 0.0 0.0 0.00 0.00 0.00 77 1016.2
20260902220021 90 136 0.0 0.0 0.00 0.00 0.00 74 1016.3
20260902214521 90 136 0.0 1.0 0.00 0.00 0.00 71 1016.3
20260902213019 90 148 0.0 1.0 0.00 0.00 0.00 73 1016.4
20260902211521 89 153 0.0 0.0 0.00 0.00 0.00 76 1016.5
20260902210017 89 153 0.0 2.0 0.00 0.00 0.00 74 1016.6
20260902204516 87 159 0.0 0.0 0.00 0.00 0.00 80 1016.7
20260902203015 87 255 0.0 0.0 0.00 0.00 0.00 82 1016.8
20260902201513 86 255 0.0 0.0 0.00 0.00 0.00 82 1016.9
20260902200012 87 255 0.0 1.0 0.00 0.00 0.00 82 1017.0
20260902194512 87 253 0.0 0.0 0.00 0.00 0.00 80 1017.2
20260902193010 88 255 0.0 0.0 0.00 0.00 0.00 78 1017.2
20260902191509 89 251 0.0 0.0 0.00 0.00 0.00 75 1017.5
20260902190007 91 249 0.0 3.0 0.00 0.00 0.00 70 1017.7
20260902184506 92 134 0.0 1.0 0.00 0.00 0.00 64 1017.7
20260902183011 93 224 0.0 3.0 0.00 0.00 0.00 60 1017.8
20260902181504 92 246 0.0 4.0 0.00 0.00 0.00 61 1017.8
20260902180005 92 34 0.0 2.0 0.00 0.00 0.00 61 1017.9
20260902174502 92 295 0.0 1.0 0.00 0.00 0.00 63 1018.1
20260902173059 92 15 0.0 1.0 0.00 0.00 0.00 61 1018.3
20260902171559 92 143 0.0 2.0 0.00 0.00 0.00 63 1018.5
20260902170058 92 105 0.0 3.0 0.00 0.00 0.00 62 1018.7
20260902164558 92 136 0.0 4.0 0.00 0.00 0.00 61 1018.8
20260902163103 91 4 0.0 2.0 0.00 0.00 0.00 62 1019.0
20260902161555 91 108 0.0 3.0 0.00 0.00 0.00 68 1019.1
20260902160055 90 111 1.0 5.0 0.00 0.00 0.00 66 1019.2
20260902154546 89 148 0.0 0.0 0.00 0.00 0.00 74 1019.2
20260902153041 87 213 0.0 0.0 0.00 0.00 0.00 76 1019.1
20260902151538 85 131 0.0 0.0 0.00 0.00 0.00 81 1019.1
20260902150033 83 217 0.0 0.0 0.00 0.00 0.00 84 1019.2
20260902144534 82 96 0.0 0.0 0.00 0.00 0.00 86 1019.4
20260902143025 80 65 0.0 0.0 0.00 0.00 0.00 90 1019.4
20260902141524 78 57 0.0 0.0 0.00 0.00 0.00 91 1019.3
20260902140019 77 129 0.0 0.0 0.00 0.00 0.00 92 1019.3
20260902134529 75 134 0.0 0.0 0.00 0.00 0.00 92 1019.4
20260902133009 74 134 0.0 0.0 0.00 0.00 0.00 92 1019.3
20260902131509 73 134 0.0 0.0 0.00 0.00 0.00 92 1019.3
20260902130005 72 134 0.0 0.0 0.00 0.00 0.00 92 1019.3
20260902124505 71 134 0.0 0.0 0.00 0.00 0.00 92 1019.3